| time (UTC) | temp F | wind direction | speed MPH | gust MPH | rain 1hr in | rain 24hr in | rain mn in | humidity % | barometer mb |
| 20260510114539 | 63 | 5 | 10.0 | 11.0 | 0.00 | 0.00 | 0.00 | 45 | 1008.1 |
| 20260510113037 | 62 | 5 | 11.0 | 13.0 | 0.00 | 0.00 | 0.00 | 46 | 1008.0 |
| 20260510111546 | 61 | 5 | 12.0 | 15.0 | 0.00 | 0.00 | 0.00 | 46 | 1008.1 |
| 20260510110033 | 62 | 5 | 11.0 | 13.0 | 0.00 | 0.00 | 0.00 | 43 | 1007.8 |
| 20260510104540 | 62 | 5 | 11.0 | 13.0 | 0.00 | 0.00 | 0.00 | 43 | 1007.9 |
| 20260510103030 | 62 | 5 | 11.0 | 12.0 | 0.00 | 0.00 | 0.00 | 42 | 1007.8 |
| 20260510101527 | 63 | 5 | 10.0 | 12.0 | 0.00 | 0.00 | 0.00 | 40 | 1007.6 |
| 20260510100027 | 63 | 5 | 10.0 | 12.0 | 0.00 | 0.00 | 0.00 | 39 | 1007.6 |
| 20260510094530 | 64 | 5 | 10.0 | 12.0 | 0.00 | 0.00 | 0.00 | 38 | 1007.6 |
| 20260510093024 | 64 | 5 | 9.0 | 12.0 | 0.00 | 0.00 | 0.00 | 37 | 1007.5 |
| 20260510091526 | 64 | 5 | 9.0 | 12.0 | 0.00 | 0.00 | 0.00 | 36 | 1007.4 |
| 20260510090023 | 65 | 5 | 8.0 | 12.0 | 0.00 | 0.00 | 0.00 | 36 | 1007.6 |
| 20260510084521 | 65 | 5 | 10.0 | 16.0 | 0.00 | 0.00 | 0.00 | 35 | 1007.6 |
| 20260510083022 | 65 | 5 | 15.0 | 18.0 | 0.00 | 0.00 | 0.00 | 35 | 1007.2 |
| 20260510081519 | 66 | 5 | 15.0 | 18.0 | 0.00 | 0.00 | 0.00 | 33 | 1007.1 |
| 20260510080019 | 66 | 5 | 14.0 | 16.0 | 0.00 | 0.00 | 0.00 | 32 | 1007.3 |
| 20260510074530 | 67 | 5 | 15.0 | 16.0 | 0.00 | 0.00 | 0.00 | 31 | 1007.5 |
| 20260510073023 | 68 | 5 | 12.0 | 14.0 | 0.00 | 0.00 | 0.00 | 29 | 1007.6 |
| 20260510071523 | 68 | 5 | 14.0 | 16.0 | 0.00 | 0.00 | 0.00 | 29 | 1007.8 |
| 20260510070022 | 68 | 5 | 15.0 | 17.0 | 0.00 | 0.00 | 0.00 | 28 | 1007.9 |
| 20260510064516 | 69 | 5 | 14.0 | 16.0 | 0.00 | 0.00 | 0.00 | 27 | 1008.0 |
| 20260510063016 | 69 | 5 | 13.0 | 16.0 | 0.00 | 0.00 | 0.00 | 27 | 1008.1 |
| 20260510061525 | 70 | 5 | 11.0 | 15.0 | 0.00 | 0.00 | 0.00 | 26 | 1008.1 |
| 20260510060035 | 71 | 5 | 10.0 | 16.0 | 0.00 | 0.00 | 0.00 | 24 | 1008.2 |
| 20260510054502 | 71 | 5 | 12.0 | 16.0 | 0.00 | 0.00 | 0.00 | 24 | 1008.3 |
| 20260510053001 | 71 | 5 | 12.0 | 18.0 | 0.00 | 0.00 | 0.00 | 22 | 1008.3 |
| 20260510051501 | 72 | 5 | 13.0 | 20.0 | 0.00 | 0.00 | 0.00 | 21 | 1008.2 |
| 20260510050101 | 73 | 5 | 13.0 | 18.0 | 0.00 | 0.00 | 0.00 | 19 | 1008.3 |
| 20260510050001 | 73 | 5 | 13.0 | 16.0 | 0.00 | 0.00 | 0.00 | 19 | 1008.3 |
| 20260510044517 | 74 | 5 | 13.0 | 17.0 | 0.00 | 0.00 | 0.00 | 18 | 1008.1 |
| 20260510043014 | 75 | 5 | 11.0 | 15.0 | 0.00 | 0.00 | 0.00 | 17 | 1008.1 |
| 20260510041516 | 76 | 5 | 12.0 | 18.0 | 0.00 | 0.00 | 0.00 | 16 | 1007.9 |
| 20260510040013 | 76 | 5 | 13.0 | 16.0 | 0.00 | 0.00 | 0.00 | 16 | 1007.9 |
| 20260510034511 | 77 | 5 | 12.0 | 15.0 | 0.00 | 0.00 | 0.00 | 15 | 1007.8 |
| 20260510033010 | 77 | 5 | 11.0 | 14.0 | 0.00 | 0.00 | 0.00 | 15 | 1007.7 |
| 20260510031511 | 78 | 5 | 11.0 | 14.0 | 0.00 | 0.00 | 0.00 | 15 | 1007.5 |
| 20260510030010 | 79 | 5 | 13.0 | 17.0 | 0.00 | 0.00 | 0.00 | 14 | 1007.5 |
| 20260510024511 | 80 | 5 | 13.0 | 17.0 | 0.00 | 0.00 | 0.00 | 13 | 1007.3 |
| 20260510023022 | 81 | 5 | 13.0 | 18.0 | 0.00 | 0.00 | 0.00 | 12 | 1007.1 |
| 20260510021508 | 82 | 5 | 14.0 | 18.0 | 0.00 | 0.00 | 0.00 | 11 | 1006.9 |
| 20260510020008 | 83 | 5 | 15.0 | 18.0 | 0.00 | 0.00 | 0.00 | 11 | 1006.8 |
| 20260510014504 | 84 | 5 | 15.0 | 18.0 | 0.00 | 0.00 | 0.00 | 11 | 1006.6 |
| 20260510013011 | 85 | 5 | 13.0 | 18.0 | 0.00 | 0.00 | 0.00 | 10 | 1006.5 |
| 20260510011511 | 87 | 5 | 13.0 | 17.0 | 0.00 | 0.00 | 0.00 | 9 | 1006.4 |
| 20260510010010 | 89 | 5 | 13.0 | 21.0 | 0.00 | 0.00 | 0.00 | 8 | 1006.4 |
| 20260510004504 | 89 | 5 | 14.0 | 19.0 | 0.00 | 0.00 | 0.00 | 8 | 1006.3 |
| 20260510003002 | 89 | 5 | 18.0 | 23.0 | 0.00 | 0.00 | 0.00 | 7 | 1006.3 |
| 20260510001600 | 90 | 5 | 14.0 | 19.0 | 0.00 | 0.00 | 0.00 | 7 | 1006.4 |
| 20260510000100 | 89 | 5 | 7.0 | 26.0 | 0.00 | 0.00 | 0.00 | 8 | 1006.6 |
| 20260509234507 | 89 | 5 | 10.0 | 19.0 | 0.00 | 0.00 | 0.00 | 7 | 1006.6 |
| 20260509233005 | 90 | 5 | 13.0 | 25.0 | 0.00 | 0.00 | 0.00 | 8 | 1006.7 |
| 20260509231505 | 90 | 5 | 12.0 | 27.0 | 0.00 | 0.00 | 0.00 | 7 | 1006.9 |
| 20260509230103 | 90 | 5 | 7.0 | 16.0 | 0.00 | 0.00 | 0.00 | 8 | 1007.1 |
| 20260509224510 | 89 | 5 | 8.0 | 21.0 | 0.00 | 0.00 | 0.00 | 8 | 1007.2 |
| 20260509223010 | 89 | 5 | 10.0 | 20.0 | 0.00 | 0.00 | 0.00 | 8 | 1007.4 |
| 20260509221507 | 89 | 5 | 4.0 | 19.0 | 0.00 | 0.00 | 0.00 | 8 | 1007.6 |
| 20260509220006 | 89 | 5 | 13.0 | 21.0 | 0.00 | 0.00 | 0.00 | 9 | 1007.7 |
| 20260509214552 | 89 | 5 | 7.0 | 21.0 | 0.00 | 0.00 | 0.00 | 9 | 1007.9 |
| 20260509213101 | 89 | 5 | 11.0 | 18.0 | 0.00 | 0.00 | 0.00 | 10 | 1008.1 |
| 20260509211649 | 89 | 5 | 20.0 | 30.0 | 0.00 | 0.00 | 0.00 | 9 | 1008.3 |
| 20260509210051 | 88 | 5 | 22.0 | 26.0 | 0.00 | 0.00 | 0.00 | 9 | 1008.6 |
| 20260509204603 | 88 | 5 | 12.0 | 27.0 | 0.00 | 0.00 | 0.00 | 10 | 1009.1 |
| 20260509203059 | 88 | 5 | 12.0 | 27.0 | 0.00 | 0.00 | 0.00 | 10 | 1009.4 |
| 20260509201550 | 87 | 5 | 18.0 | 28.0 | 0.00 | 0.00 | 0.00 | 11 | 1009.6 |
| 20260509200049 | 87 | 5 | 12.0 | 33.0 | 0.00 | 0.00 | 0.00 | 11 | 1009.8 |
| 20260509194548 | 87 | 5 | 23.0 | 31.0 | 0.00 | 0.00 | 0.00 | 12 | 1009.8 |
| 20260509193045 | 86 | 5 | 22.0 | 32.0 | 0.00 | 0.00 | 0.00 | 12 | 1010.1 |
| 20260509191544 | 86 | 5 | 23.0 | 29.0 | 0.00 | 0.00 | 0.00 | 13 | 1010.3 |
| 20260509190047 | 85 | 5 | 21.0 | 36.0 | 0.00 | 0.00 | 0.00 | 14 | 1010.3 |
| 20260509184529 | 85 | 5 | 26.0 | 34.0 | 0.00 | 0.00 | 0.00 | 14 | 1010.5 |
| 20260509183027 | 84 | 5 | 19.0 | 37.0 | 0.00 | 0.00 | 0.00 | 15 | 1010.7 |
| 20260509181524 | 84 | 5 | 22.0 | 35.0 | 0.00 | 0.00 | 0.00 | 14 | 1011.0 |
| 20260509180020 | 83 | 5 | 22.0 | 31.0 | 0.00 | 0.00 | 0.00 | 15 | 1011.2 |
| 20260509174518 | 83 | 5 | 21.0 | 30.0 | 0.00 | 0.00 | 0.00 | 16 | 1011.3 |
| 20260509173018 | 83 | 5 | 24.0 | 32.0 | 0.00 | 0.00 | 0.00 | 17 | 1011.5 |
| 20260509171516 | 82 | 5 | 19.0 | 34.0 | 0.00 | 0.00 | 0.00 | 17 | 1011.6 |
| 20260509170013 | 82 | 5 | 22.0 | 29.0 | 0.00 | 0.00 | 0.00 | 17 | 1011.7 |
| 20260509164517 | 81 | 5 | 22.0 | 28.0 | 0.00 | 0.00 | 0.00 | 18 | 1011.9 |
| 20260509163014 | 80 | 5 | 19.0 | 25.0 | 0.00 | 0.00 | 0.00 | 20 | 1011.9 |
| 20260509161512 | 79 | 5 | 16.0 | 25.0 | 0.00 | 0.00 | 0.00 | 23 | 1012.0 |
| 20260509160008 | 78 | 5 | 18.0 | 22.0 | 0.00 | 0.00 | 0.00 | 24 | 1012.0 |
| 20260509154506 | 77 | 5 | 16.0 | 24.0 | 0.00 | 0.00 | 0.00 | 26 | 1012.1 |
| 20260509153005 | 75 | 5 | 15.0 | 23.0 | 0.00 | 0.00 | 0.00 | 28 | 1012.2 |
| 20260509151559 | 75 | 5 | 18.0 | 22.0 | 0.00 | 0.00 | 0.00 | 29 | 1012.2 |
| 20260509150055 | 72 | 5 | 16.0 | 23.0 | 0.00 | 0.00 | 0.00 | 33 | 1012.4 |
| 20260509144559 | 70 | 5 | 12.0 | 16.0 | 0.00 | 0.00 | 0.00 | 39 | 1012.5 |
| 20260509143104 | 69 | 5 | 12.0 | 16.0 | 0.00 | 0.00 | 0.00 | 39 | 1012.6 |
| 20260509141552 | 68 | 5 | 11.0 | 18.0 | 0.00 | 0.00 | 0.00 | 40 | 1012.5 |
| 20260509140050 | 66 | 5 | 12.0 | 17.0 | 0.00 | 0.00 | 0.00 | 41 | 1012.4 |
| 20260509134552 | 64 | 5 | 10.0 | 14.0 | 0.00 | 0.00 | 0.00 | 45 | 1012.2 |
| 20260509133054 | 63 | 5 | 8.0 | 14.0 | 0.00 | 0.00 | 0.00 | 47 | 1012.2 |
| 20260509131543 | 61 | 5 | 8.0 | 12.0 | 0.00 | 0.00 | 0.00 | 50 | 1012.1 |
| 20260509130044 | 60 | 5 | 9.0 | 12.0 | 0.00 | 0.00 | 0.00 | 51 | 1012.0 |
| 20260509124518 | 59 | 5 | 9.0 | 12.0 | 0.00 | 0.00 | 0.00 | 50 | 1012.1 |
| 20260509123018 | 59 | 5 | 10.0 | 12.0 | 0.00 | 0.00 | 0.00 | 50 | 1012.3 |
| 20260509121518 | 59 | 5 | 9.0 | 11.0 | 0.00 | 0.00 | 0.00 | 49 | 1012.3 |
| 20260509120019 | 59 | 5 | 9.0 | 11.0 | 0.00 | 0.00 | 0.00 | 48 | 1012.1 |